Weather History for Kalamazoo, MI

Change the Weather History Date:

Sunday, January 4, 2009

  Actual Average Record
Temperature  
Mean Temperature 30 °F 25 °F  
Max Temperature 36 °F 31 °F 57 °F (1950)
Min Temperature 25 °F 19 °F -7 °F (1981)
Degree Days  
Heating Degree Days 34 40  
Month to date heating degree days 160  
Since 1 July heating degree days 2611  
Cooling Degree Days 0 0  
Month to date cooling degree days 0  
Year to date cooling degree days 0  
Moisture  
Dew Point 26 °F    
Average Humidity 80    
Maximum Humidity 96    
Minimum Humidity 59    
Precipitation  
Precipitation 0.03 in 0.06 in 1.95 in (1982)
Month to date precipitation 0.25  
Year to date precipitation 0.25  
Snow  
Snow 0.00 in - - ()
Snow Depth 1.00 in    
Sea Level Pressure  
Sea Level Pressure 30.00 in    
Wind  
Wind Speed 10 mph (SW)    
Max Wind Speed 20 mph    
Max Gust Speed 28 mph    
Visibility 6 miles    
Events Fog , Rain    
T = Trace of Precipitation, MM = Missing Value Source: NWS Daily Summary

Daily Weather History Graph

Daily Weather History Graph

Search for Another Location

Airport:

Trip Planner

Search our weather history database for the weather conditions in past years. The results will help you decide how hot, cold, wet, or windy it might be!

Date:

Astronomy

Jan. 04, 2009 Rise Set
Actual Time 8:11 AM EST 5:23 PM EST
Civil Twilight 7:39 AM EST 5:55 PM EST
Nautical Twilight 7:04 AM EST 6:30 PM EST
Astronomical Twilight 6:30 AM EST 7:04 PM EST
Moon 11:59 AM EST (1/4) 12:50 AM EST (1/4)
Length of Visible Light 10h 15m
Length of Day
9h 12m
First Quarter, 52% of the Moon is Illuminated
Jan 4
First Quarter
Jan 10
Full
Jan 17
Last Quarter
Jan 26
New
Feb 2
First Quarter

Hourly Weather History & Observations

Time (EST) Temp. Windchill Dew Point Humidity Pressure Visibility Wind Dir Wind Speed Gust Speed Precip Events Conditions
12:53 AM 30.0 °F 21.7 °F 17.1 °F 59% 30.02 in 10.0 mi ESE 9.2 mph 18.4 mph N/A   Overcast
1:14 AM 30.2 °F 21.9 °F 17.6 °F 60% 29.98 in 10.0 mi SE 9.2 mph 20.7 mph 0.00 in   Overcast
1:53 AM 30.9 °F 22.2 °F 18.0 °F 59% 29.99 in 10.0 mi SE 10.4 mph 18.4 mph 0.00 in   Overcast
2:53 AM 30.9 °F 22.2 °F 19.0 °F 61% 29.96 in 10.0 mi ESE 10.4 mph 24.2 mph N/A   Overcast
3:30 AM 30.2 °F 20.8 °F 21.2 °F 69% 29.91 in 5.0 mi SE 11.5 mph - 0.01 in Rain Light Freezing Rain
3:53 AM 30.9 °F 21.7 °F 24.1 °F 76% 29.94 in 9.0 mi SE 11.5 mph 17.3 mph 0.01 in Rain Light Freezing Rain
4:06 AM 30.2 °F 22.6 °F 24.8 °F 80% 29.90 in 10.0 mi SE 8.1 mph 17.3 mph 0.00 in   Overcast
4:53 AM 32.0 °F 25.6 °F 25.0 °F 75% 29.92 in 9.0 mi SE 6.9 mph 18.4 mph 0.00 in   Overcast
5:53 AM 32.0 °F 24.2 °F 28.0 °F 85% 29.91 in 7.0 mi SSE 9.2 mph - N/A   Overcast
6:53 AM 33.1 °F 26.9 °F 28.9 °F 85% 29.90 in 5.0 mi SSE 6.9 mph - 0.01 in Rain Light Rain
7:26 AM 33.8 °F 27.7 °F 28.4 °F 81% 29.87 in 4.0 mi SSE 6.9 mph - 0.00 in   Overcast
7:53 AM 33.1 °F 26.1 °F 30.0 °F 89% 29.90 in 3.0 mi SSE 8.1 mph - 0.01 in Rain Light Rain
8:09 AM 33.8 °F 27.0 °F 30.2 °F 87% 29.88 in 2.5 mi South 8.1 mph - 0.00 in   Overcast
8:29 AM 32.0 °F 25.6 °F 30.2 °F 93% 29.88 in 2.0 mi SSE 6.9 mph - 0.00 in   Overcast
8:53 AM 33.1 °F 27.7 °F 30.9 °F 92% 29.91 in 2.0 mi SSE 5.8 mph - 0.00 in   Light Drizzle
9:04 AM 33.8 °F 28.6 °F 30.2 °F 87% 29.88 in 0.8 mi South 5.8 mph - 0.00 in   Light Drizzle
9:53 AM 33.1 °F 28.7 °F 30.9 °F 92% 29.92 in 0.8 mi South 4.6 mph - 0.00 in   Light Drizzle
10:42 AM 33.8 °F 29.6 °F 32.0 °F 93% 29.91 in 0.2 mi South 4.6 mph - 0.00 in Fog Light Drizzle
10:53 AM 33.1 °F 27.7 °F 32.0 °F 96% 29.95 in 0.2 mi South 5.8 mph - 0.00 in Fog Light Drizzle
11:53 AM 34.0 °F 29.8 °F 32.0 °F 92% 29.95 in 0.2 mi WSW 4.6 mph - 0.00 in Fog Light Drizzle
12:53 PM 35.1 °F 27.9 °F 33.1 °F 92% 29.94 in 0.2 mi West 9.2 mph - 0.00 in Fog Light Drizzle
1:04 PM 35.6 °F 27.1 °F 33.8 °F 93% 29.91 in 0.5 mi West 12.7 mph - 0.00 in Fog Fog
1:44 PM 35.6 °F 26.6 °F 33.8 °F 93% 29.92 in 2.0 mi WNW 13.8 mph - 0.00 in   Overcast
1:53 PM 36.0 °F 26.7 °F 33.1 °F 89% 29.96 in 2.0 mi WNW 15.0 mph - 0.00 in   Overcast
2:53 PM 35.1 °F 25.2 °F 32.0 °F 89% 30.00 in 4.0 mi WNW 16.1 mph 21.9 mph N/A   Overcast
3:53 PM 34.0 °F 25.0 °F 30.9 °F 89% 30.04 in 6.0 mi WNW 12.7 mph 24.2 mph N/A   Overcast
4:41 PM 33.8 °F 23.2 °F 28.4 °F 81% 30.04 in 7.0 mi WNW 17.3 mph 25.3 mph N/A   Overcast
4:53 PM 34.0 °F 23.8 °F 28.9 °F 82% 30.07 in 8.0 mi WNW 16.1 mph 25.3 mph N/A   Overcast
5:53 PM 33.1 °F 21.9 °F 28.0 °F 82% 30.10 in 8.0 mi NW 18.4 mph 23.0 mph N/A   Overcast
6:53 PM 32.0 °F 20.5 °F 26.1 °F 79% 30.12 in 7.0 mi WNW 18.4 mph 25.3 mph N/A   Overcast
7:43 PM 30.2 °F 19.3 °F 23.0 °F 75% 30.12 in 9.0 mi WNW 15.0 mph 27.6 mph N/A   Overcast
7:53 PM 30.0 °F 18.7 °F 21.9 °F 72% 30.16 in 9.0 mi WNW 16.1 mph 24.2 mph N/A   Overcast
8:53 PM 28.0 °F 14.9 °F 19.0 °F 69% 30.18 in 10.0 mi WNW 19.6 mph 27.6 mph N/A   Overcast
9:53 PM 26.1 °F 14.5 °F 17.1 °F 69% 30.20 in 10.0 mi NW 13.8 mph - N/A   Scattered Clouds
10:33 PM 26.6 °F 17.5 °F 15.8 °F 64% 30.17 in 10.0 mi WNW 9.2 mph 20.7 mph N/A   Mostly Cloudy
10:53 PM 25.0 °F 14.2 °F 15.1 °F 66% 30.21 in 10.0 mi WNW 11.5 mph - N/A   Partly Cloudy
11:53 PM 25.0 °F 16.3 °F 14.0 °F 63% 30.22 in 10.0 mi WNW 8.1 mph - N/A   Clear